Weather History for Triuchirapalli, India

Change the Weather History Date:

Saturday, November 3, 2012

  Actual Average Record
Temperature  
Mean Temperature 84 °F -  
Max Temperature 92 °F 83 °F 93 °F (2010)
Min Temperature 76 °F 74 °F 68 °F (2008)
Cooling Degree Days 19    
Growing Degree Days 34 (Base 50)    
Moisture  
Dew Point 74 °F    
Average Humidity 74    
Maximum Humidity 94    
Minimum Humidity 41    
Precipitation  
Precipitation 0.00 in - - ()
Sea Level Pressure  
Sea Level Pressure 29.80 in    
Wind  
Wind Speed 4 mph ()    
Max Wind Speed 12 mph    
Max Gust Speed -    
Visibility 3.0 miles    
Events      
Averages and records for this station are not official NWS values.
T = Trace of Precipitation, MM = Missing Value Source: Averaged Metar Reports

Daily Weather History Graph

Daily Weather History Graph

Search for Another Location

Airport:

Trip Planner

Search our weather history database for the weather conditions in past years. The results will help you decide how hot, cold, wet, or windy it might be!

Date:

Astronomy

Nov. 03, 2012 Rise Set
Actual Time 6:06 AM IST 5:50 PM IST
Civil Twilight 5:45 AM IST 6:12 PM IST
Nautical Twilight 5:20 AM IST 6:37 PM IST
Astronomical Twilight 4:54 AM IST 7:02 PM IST
Moon 9:23 PM IST (11/3) 9:32 AM IST (11/3)
Length of Visible Light 12h 26m
Length of Day
11h 43m
Waning Gibbous, 83% of the Moon is Illuminated
Nov 3
Waning Gibbous
Nov 7
Last Quarter
Nov 14
New
Nov 20
First Quarter
Nov 28
Full

Hourly Weather History & Observations

Time (IST) Temp. Heat Index Dew Point Humidity Pressure Visibility Wind Dir Wind Speed Gust Speed Precip Events Conditions
12:10 AM 78.8 °F - 77.0 °F 94% 29.80 in 1.9 mi SSW 5.8 mph - N/A   Haze
12:40 AM 78.8 °F - 77.0 °F 94% 29.80 in 1.9 mi SSW 3.5 mph - N/A   Haze
1:10 AM 78.8 °F - 75.2 °F 89% 29.80 in 1.9 mi SW 3.5 mph - N/A   Haze
1:40 AM 77.0 °F - 75.2 °F 94% 29.80 in 1.9 mi SSW 2.3 mph - N/A   Haze
2:10 AM 77.0 °F - 71.6 °F 83% 29.80 in 1.9 mi SSW 2.3 mph - N/A   Haze
2:30 AM 77 °F - 73 °F 83% 29.78 in 1 mi SSW 2.3 mph - -   Haze
2:40 AM 77.0 °F - 75.2 °F 94% 29.77 in 1.9 mi WSW 2.3 mph - N/A   Haze
3:10 AM 82.4 °F 88.2 °F 73.4 °F 74% 29.77 in 1.9 mi West 2.3 mph - N/A   Haze
3:40 AM 77.0 °F - 73.4 °F 89% 29.77 in 1.9 mi SSW 2.3 mph - N/A   Haze
4:40 AM 75.2 °F - 73.4 °F 94% 29.80 in 1.6 mi WNW 2.3 mph - N/A   Scattered Clouds
5:10 AM 75.2 °F - 73.4 °F 94% 29.80 in 1.6 mi West 3.5 mph - N/A   Scattered Clouds
5:30 AM 77 °F - 75 °F 92% 29.78 in 1 mi WNW 2.3 mph - -   Haze
5:40 AM 77.0 °F - 75.2 °F 94% 29.77 in 1.2 mi WSW 2.3 mph - N/A   Scattered Clouds
6:10 AM 77.0 °F - 75.2 °F 94% 29.80 in 0.9 mi Calm Calm - N/A   Mostly Cloudy
6:40 AM 77.0 °F - 75.2 °F 94% 29.80 in 0.9 mi Calm Calm - N/A   Mostly Cloudy
7:10 AM 78.8 °F - 75.2 °F 89% 29.80 in 0.9 mi Calm Calm - N/A   Partly Cloudy
7:40 AM 80.6 °F 86.2 °F 75.2 °F 84% 29.83 in 1.2 mi WNW 2.3 mph - N/A   Partly Cloudy
8:10 AM 80.6 °F 86.2 °F 75.2 °F 84% 29.83 in 1.6 mi WNW 5.8 mph - N/A   Haze
8:30 AM 81 °F - 75 °F 78% 29.83 in 1 mi WNW 9.2 mph - -   Haze
8:40 AM 82.4 °F 89.5 °F 75.2 °F 79% 29.83 in 1.6 mi WNW 9.2 mph - N/A   Haze
9:40 AM 86.0 °F 93.4 °F 73.4 °F 66% 29.86 in 2.2 mi WNW 9.2 mph - N/A   Haze
10:10 AM 86.0 °F 93.4 °F 73.4 °F 66% 29.86 in 2.5 mi WNW 9.2 mph - N/A   Haze
11:10 AM 89.6 °F 98.2 °F 73.4 °F 59% 29.83 in 3.7 mi WNW 10.4 mph - N/A   Unknown
11:30 AM 89 °F - 69 °F 41% 29.82 in 2 mi WNW 9.2 mph - -   Haze
11:40 AM 89.6 °F 96.2 °F 71.6 °F 55% 29.83 in 3.7 mi WNW 10.4 mph - N/A   Unknown
12:10 PM 89.6 °F 94.7 °F 69.8 °F 52% 29.83 in 4.3 mi West 11.5 mph - N/A   Unknown
12:40 PM 91.4 °F 96.8 °F 69.8 °F 49% 29.80 in 5.0 mi WNW 9.2 mph - N/A   Unknown
1:40 PM 93.2 °F 100.5 °F 71.6 °F 49% 29.77 in 6.2 mi West 6.9 mph - N/A   Partly Cloudy
2:10 PM 93.2 °F 100.5 °F 71.6 °F 49% 29.77 in 6.2 mi West 6.9 mph - N/A   Partly Cloudy
2:30 PM 91 °F - 71 °F 43% 29.75 in 6 mi West 4.6 mph - -   Scattered Clouds
2:40 PM 91.4 °F 98.4 °F 71.6 °F 52% 29.77 in 6.2 mi West 4.6 mph - N/A   Partly Cloudy
3:10 PM 91.4 °F 98.4 °F 71.6 °F 52% 29.74 in 6.2 mi WSW 4.6 mph - N/A   Partly Cloudy
3:40 PM 89.6 °F 96.2 °F 71.6 °F 55% 29.74 in 6.2 mi West 4.6 mph - N/A   Partly Cloudy
4:10 PM 89.6 °F 96.2 °F 71.6 °F 55% 29.74 in 6.2 mi WSW 4.6 mph - N/A   Partly Cloudy
4:40 PM 87.8 °F 93.8 °F 71.6 °F 58% 29.74 in 6.2 mi West 4.6 mph - N/A   Partly Cloudy
5:10 PM 87.8 °F 95.6 °F 73.4 °F 62% 29.74 in 6.2 mi WSW 4.6 mph - N/A   Partly Cloudy
5:30 PM 88 °F - 73 °F 53% 29.75 in 2 mi Calm Calm - -   Haze
5:40 PM 87.8 °F 95.6 °F 73.4 °F 62% 29.77 in 5.0 mi Calm Calm - N/A   Partly Cloudy
6:10 PM 86.0 °F 93.4 °F 73.4 °F 66% 29.77 in 3.7 mi Variable 2.3 mph - N/A   Partly Cloudy
6:40 PM 86.0 °F 93.4 °F 73.4 °F 66% 29.77 in 3.7 mi Variable 2.3 mph - N/A   Partly Cloudy
7:10 PM 84.2 °F 92.3 °F 75.2 °F 74% 29.80 in 3.7 mi Variable 2.3 mph - N/A   Partly Cloudy
7:40 PM 84.2 °F 92.3 °F 75.2 °F 74% 29.80 in 3.7 mi South 6.9 mph - N/A   Partly Cloudy
8:10 PM 82.4 °F 89.5 °F 75.2 °F 79% 29.80 in 3.1 mi SSE 3.5 mph - N/A   Haze
8:30 PM 82 °F - 75 °F 73% 29.81 in 1 mi South 5.8 mph - -   Haze
8:40 PM 82.4 °F 89.5 °F 75.2 °F 79% 29.83 in 3.1 mi South 4.6 mph - N/A   Haze
9:10 PM 82.4 °F 89.5 °F 75.2 °F 79% 29.83 in 3.1 mi South 5.8 mph - N/A   Haze
9:40 PM 80.6 °F 86.2 °F 75.2 °F 84% 29.83 in 3.1 mi South 4.6 mph - N/A   Haze
10:10 PM 80.6 °F 86.2 °F 75.2 °F 84% 29.86 in 3.1 mi WNW 4.6 mph - N/A   Haze
10:40 PM 80.6 °F 86.2 °F 75.2 °F 84% 29.86 in 3.1 mi SSW 3.5 mph - N/A   Haze
11:10 PM 80.6 °F 86.2 °F 75.2 °F 84% 29.86 in 3.1 mi SSW 2.3 mph - N/A   Haze
11:30 PM 80 °F - 75 °F 81% 29.85 in 1 mi Calm Calm - -   Haze
11:40 PM 80.6 °F 86.2 °F 75.2 °F 84% 29.86 in 3.1 mi Calm Calm - N/A   Haze